Wind_Speed
17 17 17 17 17 17 17 17 17 17 17 18 17 16 16 16 16 16 17 17 16 16 16 15 15 15 15 14 14 14 13 13 12 13 13 12 12 11 11 11 10 10 10
18 17 17 18 18 18 18 18 18 19 19 18 18 17 17 17 17 17 17 17 17 16 16 16 15 15 15 15 16 15 15 14 14 14 13 13 12 12 12 12 12 11 11
19 19 19 19 19 19 19 19 19 20 20 19 19 18 18 18 18 18 18 18 18 17 17 16 16 16 16 16 16 16 16 15 15 14 13 13 13 13 13 13 13 13 13
20 20 20 20 20 20 20 20 19 20 20 20 20 20 20 19 19 19 19 19 18 18 18 18 17 17 17 17 17 17 16 15 15 15 15 14 14 13 14 14 14 14 14
20 20 20 21 20 20 20 20 19 19 19 20 20 20 20 20 20 20 20 20 20 20 20 19 19 18 17 17 17 18 17 17 16 16 16 15 15 15 15 15 15 15 15
21 21 21 21 20 20 20 20 20 20 20 20 20 21 20 20 21 21 21 22 22 21 21 21 21 20 20 19 19 19 19 18 17 17 17 17 16 16 16 16 16 16 17
21 21 21 21 21 22 22 21 21 21 21 22 22 22 22 22 22 23 23 23 23 23 23 23 23 22 22 21 21 20 20 20 19 19 19 18 18 18 17 17 18 18 18
22 22 22 22 23 23 23 23 23 23 23 23 23 24 24 24 24 25 25 25 25 25 24 25 24 24 24 23 22 22 21 21 21 20 20 20 20 20 19 19 19 19 19
23 23 23 24 24 23 24 24 24 24 25 25 25 25 25 25 26 26 26 26 26 26 26 26 26 25 25 25 24 24 23 23 23 22 22 22 21 21 21 21 20 19 19
23 23 24 24 25 25 25 25 26 26 26 26 26 26 26 26 27 27 27 27 27 27 27 27 27 26 25 26 26 25 25 25 24 24 23 23 23 22 21 21 21 21 20
24 25 25 26 26 26 26 27 27 27 28 28 28 28 28 28 28 28 29 29 28 28 28 28 28 28 27 27 27 27 27 27 26 26 25 25 24 23 23 22 22 22 22
24 25 25 25 26 27 28 28 28 28 29 29 29 29 29 30 30 30 30 30 30 30 29 29 30 30 29 29 29 29 29 28 28 27 27 27 26 26 25 25 24 24 24
25 25 26 26 27 27 28 29 29 30 30 30 30 30 30 30 31 31 32 32 32 31 31 31 31 31 30 30 30 30 30 30 30 29 29 28 27 27 27 27 26 26 26
26 27 27 28 28 28 29 30 30 31 31 31 31 30 30 30 31 31 32 32 33 33 33 33 33 33 32 32 32 32 31 30 30 31 31 30 29 29 28 28 27 27 27
27 27 28 28 28 29 29 30 30 30 31 31 31 32 32 32 32 32 32 33 33 34 34 34 34 34 34 34 34 35 34 33 32 32 32 32 31 30 30 30 29 28 28
27 28 28 29 29 30 30 30 31 31 32 32 32 33 33 33 33 33 33 33 34 34 35 35 35 35 35 35 36 36 36 35 35 33 33 33 32 32 31 31 30 29 28
28 29 29 30 30 31 31 31 31 32 32 32 32 32 32 32 33 33 34 35 35 35 36 35 35 36 35 35 36 36 35 35 35 35 34 33 33 33 32 32 31 30 30
29 29 30 31 31 31 31 31 31 31 31 31 32 33 33 34 34 34 35 35 35 35 35 35 35 35 35 35 35 35 35 35 35 35 35 34 34 34 33 33 32 31 31
29 29 30 30 30 31 31 31 31 30 30 31 31 32 33 33 34 35 35 34 35 35 35 35 36 36 35 35 35 35 35 35 35 35 35 34 33 33 33 33 32 32 31
29 29 29 30 30 30 30 30 30 30 30 30 31 31 32 32 33 33 33 33 33 33 34 35 35 36 36 35 35 35 35 35 35 34 35 35 34 33 33 32 32 32 32
29 29 30 30 30 31 31 30 30 30 30 30 29 30 30 30 30 31 31 31 31 31 32 33 34 35 35 35 35 36 36 36 35 35 35 34 34 34 33 33 32 33 33
29 30 30 30 30 31 30 30 29 30 30 30 29 29 30 30 30 29 30 30 30 31 31 32 32 33 33 34 35 36 36 36 36 35 35 35 34 35 34 34 34 34 34
30 30 30 30 30 30 29 29 29 29 29 29 29 29 28 29 29 29 30 30 30 30 30 31 32 33 32 33 33 34 35 36 36 36 36 36 36 36 35 35 36 35 35
29 29 29 29 29 29 29 29 29 29 28 28 28 28 28 27 28 29 29 29 29 29 30 31 31 31 32 32 32 32 33 34 34 34 35 35 35 36 36 35 36 35 35
28 28 28 28 28 28 28 28 29 29 29 28 28 28 28 28 28 28 28 28 28 28 29 30 30 30 30 31 31 31 32 33 33 34 34 34 35 35 35 36 36 36 36
27 27 27 27 28 28 28 29 29 28 28 28 28 28 28 28 28 28 27 28 28 29 29 29 29 29 29 30 30 30 31 31 32 33 34 34 34 34 35 35 35 35 35
Wind_Direction
277 278 277 275 272 269 268 267 266 264 264 263 259 258 259 261 261 260 259 258 258 260 260 261 261 261 259 259 261 262 263 262 263 266 269 267 268 266 265 263 264 266 266
276 276 276 275 273 271 269 269 266 264 265 262 260 261 262 261 261 260 259 259 258 258 259 261 258 257 257 260 263 263 262 261 261 264 265 263 264 265 264 263 262 264 267
274 275 275 275 274 273 270 269 266 265 264 261 261 261 261 260 259 259 258 258 258 257 259 259 258 258 258 260 262 261 262 263 260 258 259 261 263 265 264 263 262 265 267
274 275 275 274 274 273 271 270 268 266 263 262 262 261 260 259 258 257 258 257 258 258 260 261 260 259 260 260 260 261 260 260 258 257 257 259 261 265 265 264 262 264 267
274 274 273 272 272 271 269 267 267 266 265 263 263 262 260 258 257 256 258 258 257 259 259 260 260 259 261 261 259 261 260 260 258 258 259 257 259 263 266 263 262 264 268
275 274 273 272 270 269 269 266 264 263 264 263 263 262 260 259 258 257 257 257 258 259 259 259 259 259 259 261 259 260 260 259 257 257 259 259 260 263 266 265 264 266 269
275 274 272 270 269 268 267 265 264 265 264 264 262 262 261 260 259 259 259 257 257 259 259 259 258 258 258 260 260 259 259 258 258 258 258 259 261 262 264 265 265 265 268
274 273 272 271 270 269 267 265 265 266 266 265 262 262 262 262 262 261 260 259 259 259 259 258 258 258 258 259 260 259 259 258 258 258 257 259 261 263 263 263 265 266 269
273 273 272 271 270 269 268 267 266 266 266 265 265 264 264 264 264 264 263 261 260 260 259 259 258 257 257 258 259 258 259 258 258 259 258 258 260 262 263 264 266 266 268
273 273 273 272 271 270 269 269 268 266 265 266 266 266 266 265 265 265 264 262 260 259 259 258 257 256 256 257 258 258 258 259 259 258 257 257 258 260 262 263 265 265 267
274 274 273 272 271 271 270 269 268 269 268 267 267 266 267 267 266 265 265 263 261 259 258 257 256 256 255 255 256 257 257 258 258 257 256 256 257 258 260 262 263 263 265
275 274 273 272 271 271 270 269 269 269 269 268 268 267 268 268 267 265 263 262 261 259 257 256 256 256 256 256 256 257 257 257 257 257 256 256 257 258 259 260 260 261 262
275 275 274 274 274 272 272 271 271 270 270 270 270 269 268 267 266 264 262 261 260 259 257 256 255 256 256 257 257 256 257 257 256 255 255 255 256 256 257 258 258 259 260
276 276 276 276 276 275 275 274 273 272 271 270 269 269 268 268 267 265 262 261 261 259 257 256 255 255 255 255 256 256 256 256 255 254 254 254 255 256 257 258 259 260 260
278 277 277 278 278 277 276 275 274 273 272 271 270 270 269 267 267 265 263 261 260 260 258 256 256 255 255 255 255 255 256 256 256 255 253 253 255 256 256 258 260 262 261
279 279 278 278 279 279 279 278 276 276 274 273 272 271 269 267 266 264 263 262 260 259 258 256 255 255 255 256 256 256 256 255 255 255 254 254 255 255 257 258 259 260 260
280 280 279 279 279 279 279 279 278 277 276 274 273 272 269 267 266 266 264 262 260 259 258 256 255 255 255 255 256 256 256 254 253 254 253 253 254 255 257 258 258 259 260
281 282 281 281 281 281 280 280 279 278 277 275 274 273 271 269 267 266 264 262 261 260 258 256 255 255 255 254 255 254 255 253 253 253 253 253 254 254 256 257 258 258 259
282 283 284 283 283 283 282 280 279 278 278 277 275 274 272 270 268 267 266 263 261 260 258 256 255 254 254 254 253 253 253 253 252 253 252 252 253 254 255 256 257 258 258
284 285 286 285 284 283 284 282 280 279 278 278 277 275 274 272 269 267 265 264 262 260 257 255 254 254 254 253 252 252 253 252 252 252 251 251 252 254 255 256 257 258 259
287 287 288 287 286 285 284 283 281 279 278 278 277 277 275 273 269 266 264 263 262 260 257 255 254 254 253 252 251 251 251 251 251 252 251 252 252 253 254 256 258 259 260
289 290 289 288 288 287 285 283 282 281 280 278 277 277 275 272 269 266 264 263 262 259 257 254 254 254 252 252 251 251 250 250 250 251 252 253 252 252 253 255 257 259 260
290 290 289 289 288 287 285 284 283 283 281 280 278 277 275 272 269 266 263 262 260 258 256 255 254 254 253 252 251 251 251 250 250 251 252 252 252 252 253 255 257 259 260
290 290 289 289 288 287 286 284 284 284 283 281 280 278 276 274 271 267 264 261 259 256 254 254 255 254 254 253 252 252 251 251 250 250 252 252 251 252 254 255 257 258 260
290 291 290 289 288 287 286 286 285 283 282 281 279 277 275 273 272 269 265 262 258 255 254 255 255 255 254 252 252 253 252 251 249 250 250 251 252 253 255 257 257 259 260
292 291 292 291 289 287 287 286 285 284 282 280 278 277 275 272 272 269 265 261 257 255 255 255 255 255 255 252 251 252 252 251 250 250 250 251 252 253 255 257 258 260 260
Height
5819 5818 5817 5817 5816 5816 5816 5816 5815 5816 5816 5816 5816 5817 5818 5818 5818 5819 5819 5820 5820 5821 5821 5821 5821 5821 5822 5822 5822 5822 5822 5822 5822 5821 5820 5820 5820 5820 5819 5819 5819 5819 5819
5814 5813 5812 5812 5811 5811 5810 5810 5810 5810 5810 5811 5811 5812 5813 5813 5814 5814 5814 5815 5816 5816 5816 5816 5817 5817 5818 5818 5818 5818 5818 5818 5818 5818 5817 5817 5817 5817 5817 5816 5816 5816 5816
5808 5807 5807 5806 5806 5805 5805 5805 5805 5805 5805 5805 5806 5807 5807 5808 5809 5809 5810 5810 5811 5812 5812 5812 5812 5813 5813 5814 5814 5814 5814 5814 5814 5814 5814 5813 5814 5813 5813 5813 5813 5813 5812
5802 5801 5801 5800 5800 5799 5799 5799 5799 5799 5799 5799 5800 5801 5801 5802 5803 5804 5805 5805 5806 5807 5807 5807 5808 5808 5808 5809 5809 5809 5809 5809 5809 5810 5810 5810 5810 5810 5809 5809 5809 5809 5809
5796 5795 5795 5794 5793 5793 5793 5793 5793 5793 5793 5794 5794 5794 5795 5796 5797 5798 5799 5799 5800 5801 5801 5802 5802 5803 5803 5804 5804 5804 5804 5805 5805 5805 5805 5805 5805 5805 5805 5805 5805 5805 5805
5789 5789 5788 5788 5787 5787 5787 5787 5787 5787 5788 5788 5788 5788 5789 5790 5790 5791 5792 5793 5794 5795 5795 5796 5797 5797 5798 5798 5799 5799 5799 5800 5800 5800 5800 5800 5800 5801 5801 5801 5801 5801 5800
5783 5782 5781 5781 5781 5781 5781 5781 5781 5781 5781 5781 5782 5782 5782 5783 5784 5784 5785 5786 5787 5788 5788 5789 5790 5791 5792 5792 5793 5793 5794 5794 5794 5795 5795 5795 5795 5796 5796 5796 5796 5795 5795
5776 5775 5775 5774 5774 5774 5774 5774 5774 5774 5774 5774 5774 5775 5775 5776 5776 5777 5777 5778 5779 5780 5781 5782 5783 5784 5785 5785 5786 5787 5787 5788 5788 5789 5789 5789 5790 5790 5790 5790 5790 5790 5790
5769 5768 5768 5767 5767 5766 5766 5766 5766 5767 5767 5767 5767 5767 5767 5768 5768 5769 5769 5770 5771 5772 5773 5774 5775 5776 5777 5778 5779 5780 5781 5781 5782 5782 5782 5783 5783 5784 5784 5784 5784 5784 5784
5761 5761 5760 5759 5759 5759 5758 5758 5758 5758 5758 5758 5758 5758 5758 5759 5759 5760 5760 5761 5762 5763 5764 5765 5766 5768 5769 5770 5771 5772 5773 5774 5774 5775 5775 5776 5776 5777 5777 5777 5777 5777 5777
5754 5753 5752 5752 5751 5750 5750 5749 5749 5749 5749 5749 5749 5749 5749 5749 5750 5750 5751 5751 5752 5754 5755 5756 5757 5759 5760 5761 5762 5764 5765 5766 5766 5767 5767 5768 5769 5770 5770 5770 5770 5771 5771
5746 5745 5744 5743 5742 5742 5741 5740 5740 5739 5739 5739 5739 5739 5740 5740 5740 5740 5741 5742 5742 5744 5745 5746 5748 5749 5751 5752 5754 5755 5756 5757 5758 5758 5759 5761 5762 5762 5763 5763 5763 5763 5763
5737 5736 5735 5734 5733 5732 5731 5731 5730 5729 5729 5729 5729 5729 5729 5729 5729 5730 5730 5731 5732 5733 5735 5736 5738 5740 5741 5743 5744 5745 5746 5747 5748 5749 5751 5752 5753 5754 5754 5755 5755 5755 5756
5728 5727 5726 5725 5724 5723 5721 5720 5719 5719 5718 5718 5718 5718 5718 5718 5719 5719 5719 5720 5721 5722 5724 5726 5727 5729 5731 5732 5734 5735 5736 5737 5738 5740 5741 5743 5744 5744 5745 5746 5746 5747 5747
5719 5718 5716 5715 5714 5712 5711 5710 5709 5708 5707 5707 5707 5707 5707 5708 5708 5708 5708 5709 5710 5711 5712 5714 5716 5718 5720 5721 5723 5724 5725 5727 5728 5730 5731 5733 5734 5735 5736 5737 5737 5738 5739
5710 5708 5707 5706 5704 5703 5701 5700 5698 5697 5696 5695 5695 5694 5695 5695 5696 5696 5696 5697 5698 5699 5700 5702 5704 5706 5708 5710 5712 5713 5714 5716 5718 5719 5721 5723 5724 5726 5727 5727 5728 5729 5729
5700 5699 5697 5696 5694 5693 5691 5689 5688 5686 5685 5684 5683 5682 5682 5683 5683 5684 5684 5685 5685 5686 5688 5690 5692 5694 5697 5698 5700 5701 5703 5704 5706 5708 5710 5712 5714 5715 5716 5717 5718 5719 5720
5690 5689 5687 5686 5684 5682 5680 5678 5677 5675 5674 5673 5672 5671 5671 5671 5671 5671 5672 5672 5673 5674 5676 5678 5680 5682 5684 5686 5688 5690 5691 5693 5695 5697 5699 5701 5703 5704 5706 5707 5708 5709 5710
5680 5679 5677 5675 5673 5671 5669 5667 5666 5664 5663 5662 5661 5660 5659 5659 5659 5659 5659 5660 5662 5663 5664 5666 5668 5670 5672 5674 5676 5678 5680 5681 5684 5686 5688 5690 5692 5693 5695 5696 5697 5699 5699
5670 5669 5666 5664 5662 5661 5659 5657 5655 5654 5652 5651 5650 5649 5648 5647 5647 5647 5647 5648 5649 5651 5652 5654 5656 5658 5660 5662 5664 5666 5668 5670 5672 5674 5677 5679 5681 5683 5684 5685 5686 5688 5689
5660 5658 5656 5654 5652 5650 5648 5646 5644 5643 5642 5641 5640 5639 5637 5636 5636 5636 5636 5637 5638 5639 5641 5643 5645 5646 5648 5650 5652 5654 5657 5659 5661 5663 5665 5667 5669 5671 5673 5674 5676 5676 5677
5650 5648 5646 5644 5642 5639 5637 5636 5634 5633 5631 5630 5629 5628 5626 5625 5625 5625 5626 5626 5627 5628 5630 5632 5633 5635 5636 5638 5641 5643 5645 5647 5650 5652 5654 5656 5658 5660 5662 5663 5665 5666 5666
5640 5638 5636 5634 5631 5629 5627 5626 5624 5622 5621 5619 5618 5617 5616 5615 5615 5615 5615 5616 5617 5618 5619 5621 5622 5624 5625 5627 5629 5631 5633 5636 5638 5640 5642 5644 5646 5649 5650 5652 5653 5654 5655
5630 5628 5625 5623 5622 5620 5618 5616 5614 5612 5610 5609 5608 5607 5606 5605 5604 5604 5604 5605 5606 5607 5609 5610 5612 5613 5615 5616 5618 5620 5622 5624 5626 5628 5630 5633 5635 5637 5639 5640 5642 5643 5644
5620 5618 5616 5613 5612 5610 5608 5606 5604 5602 5600 5599 5598 5597 5596 5595 5594 5593 5593 5594 5595 5597 5598 5600 5601 5602 5604 5606 5607 5609 5611 5613 5615 5617 5619 5621 5623 5626 5627 5629 5630 5631 5632
5610 5608 5606 5604 5602 5600 5598 5596 5594 5592 5590 5589 5588 5587 5586 5585 5584 5584 5583 5584 5585 5587 5588 5590 5591 5593 5594 5595 5597 5599 5600 5602 5604 5606 5608 5610 5612 5614 5616 5617 5618 5619 5620